Regional Weather Roundup
Issued by NWS Albany, NY

Home | Current Version | Previous Version | Text Only | Print | Product List | Glossary On
Versions: 1 2 3 4 5 6 7 8 9 10 11 12 13 14 15 16 17 18 19 20 21 22 23 24 25 26 27 28 29 30 31 32 33 34 35 36 37 38 39 40 41 42 43 44 45 46 47 48 49 50
000
ASUS41 KALY 101910
RWRALY

NEW YORK STATE HOURLY WEATHER ROUNDUP
NATIONAL WEATHER SERVICE ALBANY NY
300 PM EDT THU JUL 10 2014

NOTE: "FAIR" INDICATES FEW OR NO CLOUDS BELOW 12,000 FEET WITH NO
SIGNIFICANT WEATHER AND/OR NO OBSTRUCTIONS TO VISIBILITY.

NYZ032-033-038>043-046>054-057>066-NYZ062>081-102000-
EAST


CITY           SKY/WX    TMP DP  RH WIND       PRES   REMARKS
ALBANY         MOSUNNY   78  50  37 W9        30.12F
GLENS FALLS    SUNNY     76  54  46 VRB5      30.11S
POUGHKEEPSIE   SUNNY     78  57  48 VRB5      30.11F
MONTGOMERY     MOSUNNY   79  60  52 MISG      30.11F
WHITE PLAINS   MOSUNNY   80  59  48 NE3       30.11F
ISLIP          PTSUNNY   82  59  45 N5        30.09F
NEW YORK CITY  MOSUNNY   80  59  48 NE8       30.09F
CENTRAL PARK   SUNNY     81  60  48 VRB3      30.12F
$$

NYZ005>009-017-018-044>046-055-056-102000-
CENTRAL


CITY           SKY/WX    TMP DP  RH WIND       PRES   REMARKS
FULTON         SUNNY     72  49  44 NW9       30.18S
SYRACUSE       PTSUNNY   75  51  43 VRB5      30.17S
ROME           SUNNY     73  51  46 NW9       30.16S
ELMIRA         MOSUNNY   76  53  44 E5        30.16F
BINGHAMTON     PTSUNNY   72  53  51 N8        30.18S
$$

NYZ026>034-041>043-102000-
NORTH


CITY           SKY/WX    TMP DP  RH WIND       PRES   REMARKS
WATERTOWN      SUNNY     70  47  43 W9        30.18F
FORT DRUM      NOT AVBL
MASSENA        MOSUNNY   72  48  42 W13       30.16S
SARANAC LAKE   MOSUNNY   67  45  45 W7        30.16S
PLATTSBURGH    PTSUNNY   74  50  42 NE6       30.12S
$$

NYZ001>004-010>016-019>021-102000-
WEST


CITY           SKY/WX    TMP DP  RH WIND       PRES   REMARKS
NIAGARA FALLS  MOSUNNY   73  52  47 N7        30.18S
BUFFALO        MOSUNNY   73  51  46 VRB5      30.17F
DUNKIRK        SUNNY     73  51  46 N10       30.18S
JAMESTOWN      PTSUNNY   70  52  52 CALM      30.19S
WELLSVILLE     MOSUNNY   73  51  46 NE8       30.20F
ROCHESTER      MOSUNNY   73  52  47 NE10G16   30.19S
PENN YAN       PTSUNNY   72  52  49 VRB3      30.19S
$$

             KEY
       WCI = WIND CHILL INDEX
       VSB = VISIBILITY
       HX  = HEAT INDEX
$$



USA.gov is the U.S. government's official web portal to all federal, state and local government web resources and services.